Back to catalog

STARLINK-32388

AliveCommunicationsVLEO
NORAD 62144·PAYLOAD·🇺🇸 United States

Launched Nov 30, 2024 from Cape Canaveral Space Force Station

Loading…

Next Passes (next 24 hours)

TLE

FreshSource: CelesTrak SupGP

Epoch: Sep 14, 2026, 22:48 UTC

1 62144C 24224F   26257.95048611 -.00055104  00000+0 -19956-2 0  2572
2 62144  43.0004 176.7409 0001470 269.2323 265.8555 15.27609436    13

Track STARLINK-32388 in real time with AllMySat

Download on the App Store